Regional Weather Roundup
Issued by NWS

Home | Current Version | Previous Version | Text Only | Print | Product List | Glossary Off
Versions: 1 2 3 4 5 6 7 8 9 10 11 12 13 14 15 16 17 18 19 20 21 22 23 24 25 26 27 28 29 30 31 32 33 34 35 36 37 38 39 40 41 42 43 44 45 46 47 48 49 50

000
ASUS45 KABQ 011910
RWRNM
NEW MEXICO REGIONAL WEATHER ROUNDUP
NATIONAL WEATHER SERVICE ALBUQUERQUE NM
100 PM MDT TUE SEP 01 2015

NOTE: "FAIR" MEANS FEW OR NO CLOUDS BELOW 12,000 FEET AGL WITH NO
       SIGNIFICANT WEATHER OR OBSTRUCTIONS TO VISION.

      THIS PRODUCT IS RELEASED AS TWO VERSIONS.  ONE VERSION NEAR
      THE TOP OF THE HOUR CONTAINING PRELIMINARY DATA FROM ALBUQUERQUE
      AND OTHER STATIONS.  A FINAL VERSION WITH ADDITIONAL DATA IS
      ISSUED ABOUT 10 MINUTES AFTER THE HOUR.

NMZ501-503-504-510>518-012000-
NORTHWEST PLATEAU/NORTHCENTRAL MOUNTAINS

CITY           SKY/WX    TMP DP  RH WIND       PRES   REMARKS
FARMINGTON     SUNNY     83  45  26 SW10      30.18F
LOS ALAMOS     CLOUDY    73  43  34 SW6       30.31F
SANTA FE       MOSUNNY   81  43  26 NW9       30.23F
TAOS           PTSUNNY   75  41  29 CALM      30.30F
ANGEL FIRE     FAIR      71  44  37 W13G18    30.37F

$$
NMZ402-403-502-505>509-012000-
WESTCENTRAL MOUNTAINS/SOUTHWEST MOUNTAINS

CITY           SKY/WX    TMP DP  RH WIND       PRES   REMARKS
GALLUP         PTSUNNY   75  45  34 VRB3      30.26F
GRANTS         MOSUNNY   76  48  37 NW3       30.29F
SILVER CITY      N/A     82  48  30 W8        30.21F

$$
NMZ407-409-411-412-012000-
SOUTHERN DESERTS

CITY           SKY/WX    TMP DP  RH WIND       PRES   REMARKS
LORDSBURG      FAIR      82  54  36 N5        30.12F
DEMING         SUNNY     89  50  26 VRB3      30.11F
LAS CRUCES     SUNNY     91  45  20 CALM      30.11F
HOLLOMAN AFB   MOSUNNY   93  44  18 W7        30.05F
ALAMOGORDO     MOSUNNY   93  45  18 CALM      30.08F
T OR C         MOSUNNY   89  45  21 S10       30.12F

$$
NMZ519>523-012000-
CENTRAL VALLEYS/CENTRAL HIGHLANDS

CITY           SKY/WX    TMP DP  RH WIND       PRES   REMARKS
ALBUQUERQUE    MOSUNNY   86  46  24 CALM      30.18F
DOUBLE EAGLE   PTSUNNY   84  46  26 VRB7      30.22F
MORIARTY ARPT  CLOUDY    83  42  23 N5        30.24F
CLINES CORNERS SUNNY     80  45  28 W14G21    30.28F
BELEN          FAIR      89  45  21 NE6       30.16F
SOCORRO        FAIR      86  43  22 CALM      30.14F

$$
NMZ524>526-539-540-012000-
SOUTHCENTRAL MOUNTAINS

CITY           SKY/WX    TMP DP  RH WIND       PRES   REMARKS
RUIDOSO        MOSUNNY   81  39  22 MISG      30.29F

$$
NMZ527>531-012000-
NORTHEAST HIGHLANDS/NORTHEAST PLAINS

CITY           SKY/WX    TMP DP  RH WIND       PRES   REMARKS
LAS VEGAS      MOSUNNY   81  45  28 SW9       30.24F
RATON          MOSUNNY   85  40  20 W6        30.17F
CLAYTON        SUNNY     85  56  37 S5        30.11F

$$
NMZ532>537-012000-
EASTCENTRAL PLAINS

CITY           SKY/WX    TMP DP  RH WIND       PRES   REMARKS
TUCUMCARI      SUNNY     91  53  27 S12G18    30.05F
CANNON AFB     SUNNY     90  52  26 S20G28    30.10F
CLOVIS AIRPORT SUNNY     90  54  29 S23G29    30.12S

$$
NMZ028-029-538-012000-
SOUTHEAST PLAINS

CITY           SKY/WX    TMP DP  RH WIND       PRES   REMARKS
ROSWELL        SUNNY     92  50  23 S17G23    30.06F
ARTESIA        SUNNY     91  55  29 SE15G25   30.06F
CARLSBAD       SUNNY     93  51  23 SE16G24   30.03


$$



USA.gov is the U.S. government's official web portal to all federal, state and local government web resources and services.